Regional Weather Roundup
Issued by NWS

Home | Current Version | Previous Version | Graphics & Text | Print | Product List | Glossary On
Versions: 1 2 3 4 5 6 7 8 9 10 11 12 13 14 15 16 17 18 19 20 21 22 23 24 25 26 27 28 29 30 31 32 33 34 35 36 37 38 39 40 41 42 43 44 45 46 47 48 49 50
000
ASUS43 KLSX 310457
RWRMO

WEATHER SUMMARY FOR MISSOURI
NATIONAL WEATHER SERVICE SPRINGFIELD MO
1200 AM CDT WED AUG 31 2016

NOTE: "FAIR" INDICATES FEW OR NO CLOUDS BELOW 12,000 FEET WITH NO
       SIGNIFICANT WEATHER AND/OR OBSTRUCTIONS TO VISIBILITY.
       CURRENT SKY AND/OR WEATHER CONDITIONS ARE NOT AVAILABLE FOR
       CHILLICOTHE AND FARMINGTON.

MOZ001>031-035>038-043-044-053-054-310600-
...NORTHERN AND WESTERN MISSOURI...

CITY           SKY/WX    TMP DP  RH WIND       PRES   REMARKS
KANSAS CTY INT CLOUDY    73  69  87 N3        30.13R
LEE`S SUMMIT   CLOUDY    73  71  93 NE5       30.13S
ST JOSEPH      MOCLDY    72  70  93 N6        30.13F
CHILLICOTHE      N/A     75  72  90 CALM      30.13S

$$
MOZ066>068-077>081-088>096-101>105-310600-
...SOUTHWEST MISSOURI...

CITY           SKY/WX    TMP DP  RH WIND       PRES   REMARKS
SPRINGFIELD    CLOUDY    74  70  87 N6        30.11R
JOPLIN         LGT RAIN  73  71  93 N6        30.11S

$$
MOZ032>034-039>042-045>050-055>058-069>072-310600-
...CENTRAL MISSOURI...

CITY           SKY/WX    TMP DP  RH WIND       PRES   REMARKS
COLUMBIA       NOT AVBL
JEFFERSON CITY PTCLDY    71  70  96 CALM      30.10S
ROLLA          FOG       69  68  96 CALM      30.11S VSB 3/4
SEDALIA        CLOUDY    72  70  93 CALM      30.12R

$$
MOZ051-052-059>065-310600-
...EAST CENTRAL MISSOURI...

CITY           SKY/WX    TMP DP  RH WIND       PRES   REMARKS
ST LOUIS INTL  MOCLDY    74  70  87 CALM      30.09S
SPIRIT OF STL  MOCLDY    70  70 100 CALM      30.08S FOG
ST CHARLES     PTCLDY    72  72 100 CALM      30.08S FOG

$$
MOZ072>076-082>087-097>100-106>115-310600-
...SOUTH CENTRAL AND SOUTHEAST MISSOURI...

CITY           SKY/WX    TMP DP  RH WIND       PRES   REMARKS
CAPE GIRARDEAU CLEAR     73  69  87 NW3       30.06R
POPLAR BLUFF   CLEAR     74  70  87 N6        30.05R
WEST PLAINS    CLEAR     72  68  87 N5        30.12R

$$



USA.gov is the U.S. government's official web portal to all federal, state and local government web resources and services.